Location: Mentone
(34.5413°N, 85.5351°W)
Time: 15:58:27
(UTC-05:00)

AO-Echo - Visible Passes

Search period start: 18 April 2014 00:00
Search period end: 28 April 2014 00:00
Orbit: 694 x 813 km, 98.2° (Epoch: 18 April)

Date Brightness Start Highest point End Pass type
(mag) Time Alt. Az. Time Alt. Az. Time Alt. Az.
18 Apr ? 02:44:57 10° NNE 02:47:05 26° NNE 02:47:05 26° NNE visible
18 Apr ? 04:25:44 10° NW 04:27:03 13° NW 04:27:03 13° NW visible
19 Apr ? 02:05:56 10° NE 02:06:40 13° NE 02:06:40 13° NE visible
19 Apr ? 03:44:00 10° N 03:46:38 26° NW 03:46:38 26° NW visible
20 Apr ? 03:03:35 10° NNE 03:06:13 33° NNE 03:06:13 33° NNE visible
21 Apr ? 02:24:01 10° NE 02:25:47 20° NE 02:25:47 20° NE visible
21 Apr ? 04:03:16 10° NNW 04:05:45 20° NW 04:05:45 20° NW visible
22 Apr ? 03:22:23 10° N 03:25:20 35° NNW 03:25:20 35° NNW visible
23 Apr ? 02:42:24 10° NNE 02:44:54 29° NE 02:44:54 29° NE visible
23 Apr ? 04:23:01 10° NW 04:24:52 13° WNW 04:24:52 13° WNW visible
24 Apr ? 02:03:28 10° NE 02:04:28 14° ENE 02:04:28 14° ENE visible
24 Apr ? 03:41:23 10° N 03:44:26 30° NW 03:44:26 30° NW visible
25 Apr ? 03:01:00 10° NNE 03:04:00 40° NNE 03:04:00 40° NNE visible
26 Apr ? 02:21:28 10° NE 02:23:34 22° NE 02:23:34 22° NE visible
26 Apr ? 04:00:36 10° NNW 04:03:33 22° NW 04:03:33 22° NW visible
27 Apr ? 03:19:46 10° N 03:23:07 43° NNW 03:23:07 43° NNW visible
